AirNav   Bose ProFlight Aviation Headset
 
 1432 users online  

D32 Starbuck Municipal Airport
Starbuck, Minnesota, USA

GOING TO STARBUCK?


FAA INFORMATION EFFECTIVE 16 AUGUST 2018

Location

FAA Identifier: D32
Lat/Long: 45-35-56.9850N / 095-32-10.1550W
45-35.949750N / 095-32.169250W
45.5991625 / -95.5361542
(estimated)
Elevation: 1140.3 ft. / 348 m (estimated)
Variation: 05E (1985)
From city: 1 mile S of STARBUCK, MN
Time zone: UTC -5 (UTC -6 during Standard Time)
Zip code: 56381

Airport Operations

Airport use: Open to the public
Activation date: 10/1958
Control tower: no
ARTCC: MINNEAPOLIS CENTER
FSS: PRINCETON FLIGHT SERVICE STATION
NOTAMs facility: PNM (NOTAM-D service available)
Attendance: UNATNDD
Wind indicator: lighted
Segmented circle: no
Lights: SS-SR
Beacon: white-green (lighted land airport)
Operates sunset to sunrise.

Airport Communications

CTAF: 122.9
WX AWOS-3 at GHW (9 nm E): 118.925 (320-634-5660)
WX AWOS-3 at BBB (17 nm S): 118.45 (320-843-3242)
WX ASOS at AXN (17 nm N): 118.375 (320-763-7174)
WX AWOS-3 at MOX (18 nm W): 109.6 (320-589-1303)

Nearby radio navigation aids

VOR radial/distance  VOR name  Freq  Var
MOXr079/18.3MORRIS VOR/DME109.6005E
AXNr204/25.0ALEXANDRIA VOR/DME112.8007E
BDHr325/33.6WILLMAR VOR/DME113.7004E
MVEr006/38.3MONTEVIDEO VOR/DME111.6005E

 
NDB name  Hdg/Dist  Freq  Var  ID
GLENWOOD250/9.534603EGHW --. .... .--
BENSON011/17.023905EBBB -... -... -...
APPLETON037/29.935605EAQP .- --.- .--.

Airport Services

Airframe service: NONE
Powerplant service: NONE
Bottled oxygen: NONE
Bulk oxygen: NONE

Runway Information

Runway 15/33

Dimensions: 2512 x 198 ft. / 766 x 60 m
Surface: turf, in good condition
Runway edge lights: low intensity
NSTD LIRL; NSTD SPACING.
Runway edge markings: RY 15/33 MARKED WITH YELLOW CONES.
RUNWAY 15  RUNWAY 33
Latitude: 45-36.138667N45-35.760833N
Longitude: 095-32.288667W095-32.049833W
Elevation: 1138.4 ft.1140.3 ft.
Traffic pattern: leftleft
Runway heading: 151 magnetic, 156 true331 magnetic, 336 true
Runway end identifier lights: yesyes
Touchdown point: yes, no lightsyes, no lights
Obstructions: 1 ft. brush, 1 ft. from runway, 56 ft. left and right of centerline, 1:1 slope to clear
TREE +12 FT, 230 FT FM END, 100 L, 19:1
26 ft. trees, 412 ft. from runway, 41 ft. left of centerline, 15:1 slope to clear

Airport Ownership and Management from official FAA records

Ownership: Publicly-owned
Owner: CITY OF STARBUCK
307 FIFTH ST., BOX 606
STARBUCK, MN 56381
Phone 320-239-2525
Manager: TOM BEUCKENS
307 FIFTH ST., BOX 606
STARBUCK, MN 56381
Phone (320) 239-2525

Airport Operational Statistics

Aircraft based on the field: 4
Single engine airplanes: 4
    
Aircraft operations: avg 31/week *
69% local general aviation
31% transient general aviation
* for 12-month period ending 31 July 2016

Instrument Procedures

There are no published instrument procedures at D32.

Some nearby airports with instrument procedures:

KGHW - Glenwood Municipal Airport (9 nm E)
KBBB - Benson Municipal Airport (17 nm S)
KAXN - Chandler Field Airport (17 nm N)
KMOX - Morris Municipal Airport - Charlie Schmidt Field (18 nm W)
D39 - Sauk Centre Municipal Airport (26 nm E)
 
Loc | Ops | Rwys | IFR | FBO | Links
Com | Nav | Svcs | Stats | Notes


 
Area around D32 (Starbuck Municipal Airport)
 
Road maps at: MapQuest Bing Google
 
Aerial photo
WARNING: Photo may not be current or correct
Aerial photo of D32 (Starbuck Municipal Airport)
Photo by R. Johnson

Do you have a better or more recent aerial photo of Starbuck Municipal Airport that you would like to share? If so, please send us your photo.

 
Sectional chart

 
Airport distance calculator
Flying to Starbuck Municipal Airport? Find the distance to fly.

From to D32

Sunrise and sunset
Times for 17-Aug-2018
 Local
(UTC-5)
 Zulu
(UTC)
Morning civil twilight05:5410:54
Sunrise06:2611:26
Sunset20:2601:26
Evening civil twilight20:5801:58

Current date and time
Zulu (UTC)  17-Aug-2018 17:37:09
Local (UTC-5)  17-Aug-2018 12:37:09
 
METAR
KGHW 
9nm E 
171715Z AUTO 00000KT 10SM CLR 24/18 A3013 RMK AO2
KAXN 
17nm N 
171653Z AUTO 00000KT 10SM CLR 26/16 A3014 RMK AO2 SLP201 T02610156
KBBB 
18nm S 
171715Z AUTO 00000KT 10SM CLR 23/18 A3013 RMK AO2
KMOX 
18nm W 
171715Z AUTO 30003KT 10SM CLR 23/18 A3011 RMK AO2
TAF
KAXN 
17nm N 
171121Z 1712/1812 VRB04KT P6SM SKC FM180800 19002KT 6SM BR SKC
NOTAMs
Click for the latest NOTAMs
NOTAMs are issued by the DoD/FAA and will open in a separate window not controlled by AirNav.

 

 
 

Would you like to see your business listed on this page?

 If your business provides an interesting product or service to pilots, flight crews, aircraft, or users of the Starbuck Municipal Airport, you should consider listing it here.  To start the listing process, click on the button below
 
Add a business
 

Other Pages about Starbuck Municipal Airport

Update a link
 
Copyright © AirNav, LLC. All rights reserved. Privacy Policy  Contact